Vorticity
nan nan nan nan nan nan nan nan nan nan nan nan nan nan nan nan nan nan nan nan nan nan nan nan nan nan nan nan nan nan nan nan nan nan nan nan nan nan nan nan nan nan nan
nan 8 5 6 7 7 6 5 4 6 5 5 4 4 6 7 7 6 6 6 6 7 5 3 5 7 5 4 6 7 7 7 9 7 5 3 3 3 3 4 6 8 nan
nan 7 5 7 7 6 6 5 5 5 5 4 5 5 4 5 5 5 5 6 7 7 5 4 4 5 5 4 5 7 7 6 6 6 0 1 8 7 3 4 7 8 nan
nan 6 8 8 6 6 5 5 5 5 5 5 5 5 5 5 5 5 4 6 8 7 5 4 4 2 3 5 6 7 8 7 5 2 2 8 10 7 4 4 6 6 nan
nan 7 10 9 6 6 5 5 5 4 5 5 5 6 6 5 5 5 5 6 6 6 6 5 4 3 4 5 5 6 6 6 4 2 6 9 9 10 6 4 4 4 nan
nan 8 9 8 7 6 5 5 6 5 5 5 6 6 6 6 5 4 6 7 5 5 4 4 4 7 6 6 6 5 4 4 2 5 9 8 10 11 4 4 6 5 nan
nan 8 9 7 7 6 6 5 5 5 5 6 5 6 6 5 5 5 6 6 5 6 6 4 7 7 6 6 6 4 5 4 2 5 7 8 14 11 6 5 5 6 nan
nan 6 8 7 5 6 6 6 6 6 5 5 5 6 6 5 6 5 5 5 6 8 10 12 10 6 5 5 6 4 6 3 4 6 7 10 15 9 6 3 5 7 nan
nan 7 6 6 6 6 6 7 6 6 6 6 6 6 6 6 6 6 6 7 8 9 10 11 6 7 8 6 2 4 5 5 4 7 7 10 14 8 6 3 4 5 nan
nan 9 8 8 7 6 7 8 7 6 6 6 6 6 6 7 7 8 9 10 8 6 5 6 6 7 10 8 6 11 7 1 3 5 6 14 12 8 6 5 3 4 nan
nan 8 10 8 7 7 6 8 9 7 7 7 7 7 5 7 10 10 11 9 7 6 7 6 8 8 3 4 9 9 4 1 6 6 12 16 8 7 4 4 5 6 nan
nan 6 6 8 7 5 6 6 6 7 7 7 9 8 8 8 8 9 11 8 5 6 6 6 4 4 3 3 7 6 4 9 6 7 12 13 8 7 5 4 4 5 nan
nan 6 8 6 7 5 5 5 5 6 7 8 8 8 7 7 6 7 7 7 7 6 5 7 5 7 7 8 7 6 6 8 6 8 12 10 8 6 5 5 4 5 nan
nan 6 4 7 6 4 5 8 7 6 6 7 8 8 6 7 7 7 6 7 7 7 8 6 7 10 9 8 8 5 7 6 6 9 12 12 9 6 6 5 4 5 nan
nan 10 9 6 6 6 5 6 9 8 6 7 8 7 7 7 7 7 7 6 7 7 6 8 9 8 7 6 8 7 9 7 7 7 12 12 10 10 8 5 5 6 nan
nan 6 10 8 7 6 7 6 5 7 7 7 8 8 7 7 7 7 7 8 8 6 6 8 9 7 8 6 6 8 9 7 9 7 8 12 11 10 9 9 7 5 nan
nan 10 8 8 7 7 5 5 6 8 8 7 9 10 6 7 9 7 6 7 9 9 5 5 7 8 9 8 7 7 9 10 8 8 7 8 9 9 10 12 10 8 nan
nan 15 7 9 7 6 6 5 7 8 7 8 9 11 8 7 8 8 7 7 8 8 8 7 7 7 8 8 7 7 7 10 8 8 8 7 7 8 11 11 13 11 nan
nan 11 10 9 8 6 6 7 8 7 8 8 8 10 9 7 7 7 8 9 7 7 8 7 8 7 7 9 9 8 7 8 9 8 7 6 7 7 10 12 11 9 nan
nan 13 11 10 9 6 5 7 8 8 8 10 8 11 9 7 7 6 8 10 6 6 7 8 8 6 9 10 8 7 8 9 8 9 8 6 7 8 8 8 8 11 nan
nan 14 13 8 8 7 7 6 7 8 6 8 11 11 8 8 8 6 7 10 8 7 8 6 8 7 7 9 6 6 8 12 10 9 8 8 8 7 7 7 7 9 nan
nan 12 13 10 8 5 6 6 10 11 8 10 9 10 9 9 8 8 8 8 8 9 10 7 5 5 9 7 4 8 7 7 11 11 9 9 8 7 8 8 8 8 nan
nan 17 14 12 8 7 3 2 6 8 10 11 11 9 10 10 9 9 9 8 8 8 9 9 9 7 5 6 6 5 9 9 7 9 10 9 9 7 8 8 7 7 nan
nan 18 19 13 10 9 8 7 8 3 4 9 8 7 9 10 10 8 9 9 7 7 9 9 9 9 8 7 4 6 9 11 9 7 9 11 10 9 8 7 8 8 nan
nan 20 23 15 10 11 9 6 4 6 7 10 13 9 7 10 10 8 8 8 7 7 9 9 9 7 6 9 7 5 7 7 10 12 10 7 9 11 9 10 9 8 nan
nan nan nan nan nan nan nan nan nan nan nan nan nan nan nan nan nan nan nan nan nan nan nan nan nan nan nan nan nan nan nan nan nan nan nan nan nan nan nan nan nan nan nan
CAPE
847 1209 1459 1622 1706 1679 1576 1427 1429 1536 1751 1890 1941 2108 2181 2279 2182 2082 2008 2083 2206 2176 2138 1845 1894 2099 2107 1807 1991 1897 1837 1752 1534 1666 1733 1702 1493 1415 1496 1650 1492 1296 1529
989 1316 1438 1646 1814 1806 1719 1549 1554 1686 1840 2004 2049 2073 2110 2151 2208 2209 2165 2193 2174 2530 2025 1863 1918 2016 1724 1912 1724 1691 1591 1526 1452 1678 1750 1519 1385 1209 1427 1435 1482 1403 1572
1198 1464 1446 1637 1854 1881 1846 1782 1798 1917 1947 2009 2090 2114 2120 2141 2195 2218 2196 2150 2402 2590 2144 1884 1745 1697 1707 1758 1511 1529 1454 1463 1596 1600 1605 929 1077 1269 1364 1434 1553 1437 1408
1353 1535 1538 1648 1865 1946 1873 1895 1940 2109 2062 2031 2089 2173 2204 2205 2228 2237 2207 2255 2470 2514 1944 1894 1951 1851 1733 1463 1207 1484 1430 1390 1357 1362 847 1024 991 1229 1213 1362 1334 1395 1347
1418 1582 1658 1722 1830 1937 1935 1991 2028 2117 2069 2042 2069 2237 2324 2316 2312 2319 2114 2139 2578 2502 2309 1590 1697 1448 1377 1192 1274 1332 1220 1079 934 585 598 834 727 1186 1250 1357 1232 1388 1342
1398 1532 1646 1707 1784 1877 1955 2043 2094 2038 1958 1954 2064 2239 2396 2446 2388 2277 2115 2192 2666 2563 2251 2104 1971 1332 1090 1056 1194 1134 917 724 381 365 491 1038 829 1196 1268 1336 1345 1286 1358
1274 1317 1569 1723 1840 1925 2052 2084 2067 1960 1861 1933 2100 2214 2339 2463 2407 2112 1872 2306 2384 2054 1792 1400 1201 1140 1011 1053 1144 894 602 390 288 323 387 429 858 1315 1184 1239 1234 1242 1330
1194 1303 1451 1675 1827 1975 2067 2013 1961 1894 1847 1881 2042 2146 2332 2296 2219 1975 1861 1962 1790 1428 1156 1226 1083 956 987 931 881 458 358 361 252 219 293 471 1103 1251 1160 1081 1194 1155 1206
1037 1215 1344 1596 1734 1758 1865 1926 1927 1891 1884 1872 1928 2056 2170 2078 1967 1916 1839 1748 1632 1085 995 953 890 844 842 732 535 261 302 249 175 170 293 575 1164 1172 990 861 987 995 1025
683 918 1157 1374 1496 1432 1473 1590 1726 1943 1903 1870 1889 1915 1983 1877 1814 1749 1660 1546 1308 1063 957 930 740 597 507 361 246 156 212 231 170 197 282 496 1156 1170 1139 876 806 800 726
755 692 887 1049 1100 1098 1186 1349 1624 1873 1926 1894 1881 1819 1621 1508 1447 1355 964 1087 1035 741 717 722 425 370 180 112 154 105 166 155 121 141 195 743 1146 1086 1006 802 819 609 447
1034 751 709 817 801 538 1114 1191 1275 1598 1663 1523 1461 1333 1186 962 778 536 583 746 628 462 537 264 136 19 82 58 107 120 46 69 68 92 301 629 1091 938 751 566 569 410 369
1450 1052 761 703 842 940 1190 1021 1155 1387 985 1024 1031 857 671 431 605 74 142 91 13 64 89 122 59 30 6 72 63 53 13 33 3 25 185 385 986 934 760 518 530 470 331
1747 1451 1070 826 871 997 1033 954 944 1086 978 790 667 427 586 663 447 117 37 54 0 16 10 56 112 112 39 23 82 50 3 19 0 0 135 269 470 1069 768 682 592 454 279
975 1960 1470 1003 958 1046 1024 829 787 994 1011 778 362 466 641 359 234 212 114 20 11 0 0 1 52 93 24 53 84 41 7 11 6 0 66 132 288 666 655 535 468 321 189
106 1781 1905 1517 1325 1372 1383 937 808 809 805 605 384 680 509 199 48 57 0 9 0 0 8 0 1 26 18 59 64 39 3 7 0 4 2 36 143 269 453 485 383 240 119
0 1308 2067 1975 1895 1769 1678 1255 947 911 760 663 497 607 339 188 16 0 0 14 2 18 21 0 0 0 68 55 80 32 0 0 0 2 0 0 13 72 195 346 342 311 111
0 508 2152 2186 2186 1976 1752 1520 1206 1000 895 800 537 625 395 132 16 0 0 20 9 17 52 17 0 1 29 112 18 17 0 0 0 0 0 0 0 0 2 83 95 157 88
0 0 1579 2251 2117 2167 1816 1586 1254 949 1043 911 567 631 533 183 48 4 0 0 3 2 1 33 4 2 0 7 2 1 0 0 2 0 0 0 0 0 0 0 0 10 44
0 0 652 2182 2234 2189 1608 1211 870 606 529 722 679 639 528 384 187 148 45 7 3 1 22 7 1 2 0 1 3 2 0 0 0 0 0 0 0 0 0 0 4 17 35
0 0 84 1950 2132 2055 1550 1359 1198 1201 771 610 553 544 438 397 259 236 124 41 0 16 6 12 3 1 0 3 43 1 1 0 1 0 0 0 0 0 0 0 0 0 16
0 0 25 1671 2001 1975 1730 1535 1243 1387 832 658 407 401 420 247 197 223 117 62 77 100 57 1 0 1 0 0 24 0 1 1 1 0 0 0 0 0 0 0 0 0 0
0 0 653 1486 1901 1923 1709 823 208 179 120 123 241 348 215 152 133 192 64 178 106 21 11 0 0 1 0 12 0 0 3 0 0 0 0 0 0 0 0 0 0 0 0
0 0 652 1571 1783 1816 1386 770 517 776 729 769 769 510 172 91 101 95 55 138 124 13 0 0 1 1 0 3 0 0 0 0 0 1 0 0 0 0 0 0 0 0 0
0 0 464 1644 1657 1636 1071 876 555 540 349 98 229 194 146 75 93 173 186 129 19 0 0 1 4 1 0 0 3 0 0 0 0 0 0 0 0 0 0 0 0 0 0
0 0 621 1522 1510 1265 879 543 613 266 85 104 110 111 84 60 117 133 56 54 24 2 1 0 0 0 5 3 0 0 0 0 0 0 0 0 0 0 0 0 0 0 0